Flag for U.S.A. Weather past 2 weeks in Oklahoma City, Oklahoma, U.S.A.

Now
41 °F

Drizzle. Fog.


Feels Like: 41 °F
Forecast: 37 / 44 °F
Wind: No wind

Location: Will Rogers World Airport

Current Time: Dec 18, 2014 at 10:41:45 AM

Latest Report: Dec 18, 2014 at 9:52 AM


Visibility: 4 mi

Pressure: 30.18 "Hg

Humidity: 89%

Dew point: 38 °F

Location of Oklahoma CityLocation

Historic Weather in Oklahoma City — Graph

°F

Oklahoma City temperature yesterday

Maximum temperature yesterday: 39 °F (at 3:52 AM)
Minimum temperature yesterday: 37 °F (at 12:52 AM)
Average temperature yesterday: 38 °F

Past Weeks' High & Low Weather Summary

 TemperatureHumidityPressure
High66 °F (Dec 13, 2:52 PM)97% (Dec 13, 9:52 AM)30.50 "Hg (Dec 13, 9:52 AM)
Low33 °F (Dec 16, 4:52 AM)37% (Dec 15, 3:52 PM)29.64 "Hg (Dec 14, 5:52 PM)
Average48 °F81%30.16 "Hg
* Reported Dec 3 8:52 AM — Dec 18 8:52 AM, Oklahoma City, Weather by CustomWeather, © 2014

Note: Actual official high and low records may vary slightly from our data, if they occured in-between our weather recording intervals... More about our weather records

Advertising

Oklahoma City weather history for previous 24 hours

 ConditionsComfort  
Time TempWeatherWind HumidityBarometerVisibility
8:52 AM
Dec 18
40 °FDrizzle. Fog.3 mph89%30.16 "Hg3 mi
7:52 AM40 °FDrizzle. Fog.5 mph89%30.15 "Hg2 mi
7:00 AM39 °FDrizzle. Fog.5 mph93%30.13 "Hg2 mi
5:52 AM39 °FDrizzle. Fog.6 mph93%30.12 "Hg2 mi
4:52 AM39 °FDrizzle. Fog.3 mph93%30.11 "Hg1 mi
3:52 AM39 °FFog.6 mph93%30.11 "Hg2 mi
2:52 AM39 °FDrizzle. Fog.8 mph89%30.10 "Hg1 mi
1:59 AM39 °FDrizzle. Fog.7 mph93%30.10 "Hg1 mi
1:01 AM39 °FDrizzle. Fog.10 mph87%30.11 "Hg2 mi
11:52 PM
Dec 17
39 °FDrizzle. Fog.10 mph89%30.14 "Hg2 mi
10:52 PM38 °FFog.9 mph93%30.15 "Hg3 mi
9:52 PM38 °FDrizzle. Fog.12 mph93%30.14 "Hg3 mi
8:52 PM38 °FFog.7 mph90%30.16 "Hg3 mi
7:52 PM38 °FFog.8 mph90%30.14 "Hg3 mi
6:57 PM37 °FDrizzle. Fog.8 mph93%30.13 "Hg2 mi
6:52 PM38 °FDrizzle. Fog.9 mph90%30.14 "Hg3 mi
5:52 PM38 °FLight rain. Fog.9 mph90%30.14 "Hg3 mi
4:52 PM38 °FLight rain. Fog.7 mph90%30.13 "Hg3 mi
3:52 PM38 °FLight rain. Fog.7 mph86%30.12 "Hg2 mi
2:52 PM38 °FLight rain. Fog.7 mph86%30.12 "Hg2 mi
1:52 PM38 °FLight rain. Mostly cloudy.9 mph83%30.13 "Hg6 mi
12:52 PM39 °FLight rain. Overcast.13 mph73%30.18 "Hg10 mi
11:52 AM39 °FLight rain. Overcast.14 mph73%30.22 "Hg10 mi
10:52 AM38 °FOvercast.12 mph76%30.25 "Hg10 mi
Weather by CustomWeather, © 2014

See weather overviewHow to use our weather pages